www.pogodaiklimat.ru

Погода и климат >> Архив погоды >> Австралия >> Северная территория >> Остров Центр


ПОГОДА на Острове Центр

  • Прогноз погоды на Острове Центр
  • Монитор погоды на Острове Центр

АРХИВ ПОГОДЫ на Острове Центр

Время (UTC), дата Ветер
(напр.,м/с)
 
Видим.   Явления Облачность Т
(С)
Тd
(С)
f
(%)
Тe
(С)
Тes
(С)
Комфортность P
(гПа)
Po
(гПа)
Тmin
(С)
Tmax
(С)
R
(мм)
R24
(мм)
S
(см)
05 9.01 СВ 5 н/о н/о +35.6 +26.6 60 +53 +53 опасность
перегрева
1004.0 1002.6
06 9.01 СВ 6 н/о н/о +34.6 +28.1 69 +56 +56 опасность
перегрева
1003.3 1001.9
08 9.01 СВ 7 н/о н/о +32.7 +27.7 75 +52 +52 опасность
перегрева
1003.6 1002.2
09 9.01 С 6 н/о н/о +32.6 +27.1 73 +51 +51 опасность
перегрева
1004.0 1002.6
11 9.01 С 6 н/о н/о +31.3 +27.6 81 +51 +51 опасность
перегрева
1005.1 1003.7
12 9.01 С 6 н/о н/о +31.1 +27.7 82 +50 +50 опасность
перегрева
1005.6 1004.2
14 9.01 С 5 н/о н/о +30.8 +27.6 83 +50 +50 опасность
перегрева
1006.0 1004.6
15 9.01 СЗ 5 н/о н/о +30.8 +26.7 79 +48 +48 опасность
перегрева
1005.9 1004.5
17 9.01 З 6 н/о н/о +30.5 +26.4 79 +47 +47 опасность
перегрева
1005.6 1004.2
18 9.01 СЗ 3 н/о н/о +30.0 +25.3 76 +44 +44 опасность
перегрева
1005.4 1004.0
20 9.01 З 3 н/о н/о +30.0 +24.9 74 +43 +43 опасность
перегрева
1006.6 1005.2
21 9.01 З 2 н/о н/о +29.7 +25.0 76 +43 +43 опасность
перегрева
1007.2 1005.8
23 9.01 З 5 н/о н/о +32.4 +23.6 60 +44 +44 опасность
перегрева
1007.4 1006.0
00 10.01 З 6 н/о н/о +33.5 +25.2 62 +48 +48 опасность
перегрева
1007.2 1005.8
02 10.01 З 3 н/о н/о +36.6 +25.1 52 +50 +50 опасность
перегрева
1005.7 1004.3
03 10.01 ЮЗ 2 н/о н/о +38.2 +22.6 41 +47 +47 опасность
перегрева
1004.9 1003.5
05 10.01 СВ 4 н/о н/о +38.2 +25.6 49 +52 +52 опасность
перегрева
1002.7 1001.3
06 10.01 С 5 н/о н/о +38.3 +26.0 50 +54 +54 опасность
перегрева
1001.9 1000.5
08 10.01 С 6 н/о н/о +35.0 +27.2 64 +53 +53 опасность
перегрева
1001.8 1000.4
09 10.01 С 5 н/о н/о +33.3 +26.6 68 +50 +50 опасность
перегрева
1002.5 1001.1
11 10.01 С 6 н/о н/о +31.8 +27.0 76 +50 +50 опасность
перегрева
1004.5 1003.1
12 10.01 С 7 н/о н/о +31.3 +27.0 78 +49 +49 опасность
перегрева
1004.8 1003.4
14 10.01 С 5 н/о н/о +30.7 +27.5 83 +49 +49 опасность
перегрева
1004.8 1003.4
15 10.01 С 5 н/о н/о +30.5 +27.5 84 +49 +49 опасность
перегрева
1004.3 1002.9
17 10.01 С 5 н/о н/о +30.9 +27.0 80 +49 +49 опасность
перегрева
1003.9 1002.5
18 10.01 СЗ 4 н/о н/о +30.7 +26.6 79 +47 +47 опасность
перегрева
1004.1 1002.7
20 10.01 СЗ 4 н/о н/о +30.4 +27.0 82 +48 +48 опасность
перегрева
1005.2 1003.8
21 10.01 С 4 н/о н/о +30.6 +26.5 79 +47 +47 опасность
перегрева
1006.4 1005.0
23 10.01 С 4 н/о н/о +33.3 +26.1 66 +49 +49 опасность
перегрева
1007.4 1006.0
00 11.01 С 4 н/о н/о +34.6 +25.4 59 +49 +49 опасность
перегрева
1007.2 1005.8
02 11.01 С 4 н/о н/о +36.0 +24.9 53 +49 +49 опасность
перегрева
1006.2 1004.8
03 11.01 СВ 5 н/о н/о +35.4 +25.9 58 +51 +51 опасность
перегрева
1005.6 1004.2
05 11.01 СВ 8 н/о н/о +34.4 +26.1 62 +50 +50 опасность
перегрева
1004.1 1002.7
06 11.01 СВ 8 н/о н/о +33.9 +26.9 67 +52 +52 опасность
перегрева
1003.3 1001.9
08 11.01 СВ 7 н/о н/о +32.9 +26.4 69 +50 +50 опасность
перегрева
1003.6 1002.2
09 11.01 СВ 9 н/о н/о +31.8 +26.8 75 +49 +49 опасность
перегрева
1004.3 1002.9
11 11.01 СВ 6 н/о н/о +31.2 +26.5 76 +48 +48 опасность
перегрева
1005.6 1004.2
12 11.01 С 7 н/о н/о +30.9 +27.0 80 +49 +49 опасность
перегрева
1005.8 1004.4
14 11.01 СВ 7 н/о н/о +31.1 +26.4 76 +47 +47 опасность
перегрева
1006.8 1005.4
15 11.01 С 7 н/о н/о +31.0 +26.3 76 +47 +47 опасность
перегрева
1006.1 1004.7
17 11.01 штиль 0 н/о н/о +30.7 +26.0 76 +46 +46 опасность
перегрева
1006.7 1005.3
18 11.01 С 3 н/о н/о +30.6 +26.1 77 +46 +46 опасность
перегрева
1006.3 1004.9
20 11.01 штиль 0 н/о н/о +30.2 +26.1 79 +46 +46 опасность
перегрева
1007.9 1006.5
21 11.01 З 4 н/о н/о +29.6 +25.4 78 +43 +43 опасность
перегрева
1008.7 1007.3
23 11.01 штиль 0 н/о н/о +30.7 +24.8 71 +44 +44 опасность
перегрева
1009.2 1007.8
00 12.01 СВ 4 н/о н/о +31.2 +23.3 63 +42 +42 опасность
перегрева
1009.3 1007.9
02 12.01 С 3 н/о н/о +32.3 +23.3 59 +43 +43 опасность
перегрева
1009.2 1007.8
03 12.01 СВ 6 н/о н/о +26.0 +24.4 91 +36 +36 очень
душно
1009.0 1007.6
05 12.01 СВ 5 н/о н/о +29.4 +24.9 77 +42 +42 опасность
перегрева
1007.6 1006.2
06 12.01 СВ 6 н/о н/о +29.9 +25.4 77 +44 +44 опасность
перегрева
1007.3 1005.9
08 12.01 В 6 н/о н/о +27.6 +23.2 77 +37 +37 очень
душно
1006.8 1005.4
09 12.01 В 2 н/о н/о +27.2 +23.7 81 +37 +37 очень
душно
1007.1 1005.7
11 12.01 В 6 н/о н/о +28.6 +24.2 77 +40 +40 очень
душно
1008.9 1007.5
12 12.01 В 6 н/о н/о +28.7 +24.7 79 +41 +41 опасность
перегрева
1009.8 1008.4
14 12.01 В 7 н/о н/о +28.9 +24.7 78 +41 +41 опасность
перегрева
1008.7 1007.3
15 12.01 В 6 н/о н/о +29.0 +25.0 79 +42 +42 опасность
перегрева
1008.3 1006.9
17 12.01 СВ 5 н/о н/о +29.0 +25.0 79 +42 +42 опасность
перегрева
1007.1 1005.7
18 12.01 СВ 6 н/о н/о +28.9 +24.9 79 +41 +41 опасность
перегрева
1006.3 1004.9
20 12.01 СВ 4 н/о н/о +28.9 +24.9 79 +41 +41 опасность
перегрева
1006.8 1005.4
21 12.01 С 3 н/о н/о +29.6 +24.0 72 +41 +41 опасность
перегрева
1007.7 1006.3
23 12.01 СВ 4 н/о н/о +31.6 +25.0 68 +45 +45 опасность
перегрева
1008.6 1007.2
00 13.01 СВ 4 н/о н/о +32.6 +25.2 65 +47 +47 опасность
перегрева
1008.9 1007.5
02 13.01 СВ 5 н/о н/о +29.1 +24.4 76 +41 +41 опасность
перегрева
1008.3 1006.9
03 13.01 ЮВ 19 н/о н/о +25.4 +23.6 90 +35 +35 очень
душно
1008.2 1006.8
05 13.01 В 7 н/о н/о +26.3 +25.1 93 +38 +38 очень
душно
1008.1 1006.7
06 13.01 В 9 н/о н/о +26.6 +25.4 93 +39 +39 очень
душно
1007.6 1006.2
08 13.01 В 6 н/о н/о +26.4 +24.1 87 +37 +37 очень
душно
1006.7 1005.3
09 13.01 В 5 н/о н/о +27.1 +23.6 81 +37 +37 очень
душно
1007.7 1006.3
11 13.01 В 5 н/о н/о +27.6 +23.8 80 +38 +38 очень
душно
1008.2 1006.8
12 13.01 СВ 4 н/о н/о +27.6 +23.8 80 +38 +38 очень
душно
1008.1 1006.7
14 13.01 СВ 4 н/о н/о +28.4 +24.2 78 +40 +40 очень
душно
1007.5 1006.1
15 13.01 С 4 н/о н/о +28.6 +24.8 80 +41 +41 опасность
перегрева
1007.1 1005.7
17 13.01 С 4 н/о н/о +28.3 +25.1 83 +41 +41 опасность
перегрева
1005.7 1004.3
18 13.01 С 4 н/о н/о +28.3 +24.7 81 +40 +40 очень
душно
1005.6 1004.2
20 13.01 штиль 0 н/о н/о +27.2 +24.8 87 +39 +39 очень
душно
1006.6 1005.2
21 13.01 штиль 0 н/о н/о +27.6 +25.2 87 +40 +40 очень
душно
1007.0 1005.6
23 13.01 Ю 3 н/о н/о +30.0 +25.7 78 +45 +45 опасность
перегрева
1007.9 1006.5
00 14.01 СВ 4 н/о н/о +31.7 +24.8 67 +45 +45 опасность
перегрева
1008.1 1006.7
02 14.01 СВ 5 н/о н/о +33.0 +24.5 61 +46 +46 опасность
перегрева
1007.9 1006.5
03 14.01 СВ 5 н/о н/о +33.2 +22.9 55 +43 +43 опасность
перегрева
1007.3 1005.9
05 14.01 СВ 6 н/о н/о +33.5 +23.5 56 +44 +44 опасность
перегрева
1006.3 1004.9
06 14.01 СВ 5 н/о н/о +32.2 +23.4 60 +43 +43 опасность
перегрева
1006.1 1004.7
08 14.01 СВ 5 н/о н/о +30.8 +24.0 67 +42 +42 опасность
перегрева
1005.9 1004.5
09 14.01 В 5 н/о н/о +30.5 +23.9 68 +42 +42 опасность
перегрева
1006.3 1004.9
11 14.01 СВ 6 н/о н/о +29.9 +24.3 72 +42 +42 опасность
перегрева
1007.3 1005.9
12 14.01 СВ 5 н/о н/о +30.0 +24.2 71 +42 +42 опасность
перегрева
1007.5 1006.1
14 14.01 СВ 4 н/о н/о +29.6 +24.2 73 +41 +41 опасность
перегрева
1007.9 1006.5
15 14.01 СВ 3 н/о н/о +29.3 +24.6 76 +42 +42 опасность
перегрева
1007.7 1006.3
17 14.01 С 3 н/о н/о +29.4 +24.5 75 +42 +42 опасность
перегрева
1006.7 1005.3
18 14.01 С 3 н/о н/о +29.1 +24.4 76 +41 +41 опасность
перегрева
1006.6 1005.2
20 14.01 С 1 н/о н/о +28.3 +24.5 80 +40 +40 очень
душно
1007.8 1006.4
21 14.01 СВ 3 н/о н/о +29.2 +24.5 76 +41 +41 опасность
перегрева
1009.0 1007.6
23 14.01 СВ 2 н/о н/о +31.6 +24.0 64 +43 +43 опасность
перегрева
1009.3 1007.9
00 15.01 С 3 н/о н/о +31.9 +23.7 62 +43 +43 опасность
перегрева
1008.8 1007.4
02 15.01 С 4 н/о н/о +33.7 +24.0 57 +46 +46 опасность
перегрева
1008.3 1006.9
03 15.01 СВ 5 н/о н/о +33.9 +23.6 55 +45 +45 опасность
перегрева
1007.8 1006.4
05 15.01 С 5 н/о н/о +32.9 +24.4 61 +45 +45 опасность
перегрева
1006.7 1005.3
06 15.01 СВ 5 н/о н/о +33.9 +24.8 59 +47 +47 опасность
перегрева
1006.2 1004.8
08 15.01 В 3 н/о н/о +32.6 +23.8 60 +44 +44 опасность
перегрева
1006.1 1004.7
09 15.01 В 3 н/о н/о +31.6 +22.9 60 +42 +42 опасность
перегрева
1006.2 1004.8
11 15.01 В 4 н/о н/о +30.4 +24.1 69 +42 +42 опасность
перегрева
1007.0 1005.6
12 15.01 СВ 4 н/о н/о +30.2 +24.4 71 +42 +42 опасность
перегрева
1007.3 1005.9
14 15.01 СВ 4 н/о н/о +30.0 +24.6 73 +43 +43 опасность
перегрева
1007.6 1006.2
15 15.01 С 4 н/о н/о +29.8 +24.9 75 +43 +43 опасность
перегрева
1007.1 1005.7
17 15.01 С 4 н/о н/о +29.4 +24.9 77 +42 +42 опасность
перегрева
1006.2 1004.8
18 15.01 штиль 0 н/о н/о +28.9 +24.9 79 +41 +41 опасность
перегрева
1005.8 1004.4
20 15.01 штиль 0 н/о н/о +28.6 +24.6 79 +41 +41 опасность
перегрева
1007.1 1005.7
21 15.01 штиль 0 н/о н/о +28.8 +25.2 81 +42 +42 опасность
перегрева
1007.9 1006.5
23 15.01 В 3 н/о н/о +31.8 +24.7 66 +45 +45 опасность
перегрева
1009.0 1007.6
00 16.01 В 2 н/о н/о +31.4 +24.0 65 +43 +43 опасность
перегрева
1009.2 1007.8
02 16.01 ЮВ 3 н/о н/о +33.2 +25.2 63 +47 +47 опасность
перегрева
1008.1 1006.7
03 16.01 С 2 н/о н/о +28.8 +26.4 87 +44 +44 опасность
перегрева
1007.3 1005.9

 

Местоположение метеостанции Остров Центр (Северная территория, Австралия): широта -15.75 долгота 136.80 высота над уровнем моря 13 м.

В архиве по умолчанию представлена погода на Острове Центр за последнюю неделю. Архивные данные за месяц целиком и за предыдущие месяцы, начиная с января 2011 года, Вы можете получить, выбрав интересующий диапазон дат из раскрывающегося списка и нажав кнопку "Ввод!".


*Определитесь, кто Вы:
робот инопланетянин человек

Внимание! Время в таблицах - всемирное. Для получения местного времени необходимо прибавить поправку, которая равна 9.5 ч.

Смотрите также архив погоды в соседних городах и на ближайших метеорологических станциях:

Погода в Борролооле (Северная территория, Австралия) (65 км)
Погода в Аэропорту Макартур Ривер Майн (Северная территория, Австралия) (109 км)
Погода в Аэропорту Грут-Айленд (Северная территория, Австралия) (200 км)
Погода на Острове Северо-восточный (Северная территория, Австралия) (234 км)
Погода на Острове Морнингтон (Квинсленд, Австралия) (273 км)
Погода в Булман Уимол (Северная территория, Австралия) (352 км)
Погода в Беркетауне (Квинсленд, Австралия) (366 км)
Погода в Дейли Уотерс (Северная территория, Австралия) (371 км)
Погода в Аэропорту Гоув (Северная территория, Австралия) (386 км)
Погода на Руднике Century Mine (Квинсленд, Австралия) (390 км)

Пояснения к столбцам:

Ветер - указаны скорость ветра в м/с - средняя за 10 мин, порывы в срок и между сроками (в фигурных скобках) и направление, откуда дует ветер: С - северный, СВ - северо-восточный, В - восточный, ЮВ - юго-восточный, Ю - южный, ЮЗ - юго-западный, З - западный, СЗ - северо-западный.
Видимость - горизонтальная дальность видимости в метрах или километрах. При видимости от 1 до 10 км при отсутствии осадков обычно наблюдается дымка, при ухудшении видимости до 1 км и менее - туман. В сухую погоду видимость может ухудшаться дымом, пылью или мглою.
Явления - указаны атмосферные явления, наблюдавшиеся в срок или в последний час перед сроком; фигурными скобками обозначены явления, наблюдавшиеся между сроками (за 1-3 часа до срока); квадратными скобками обозначены град или гололедные отложения с указанием их диаметра в мм.
Облачность - указаны через наклонную черту общая и нижняя облачность в баллах и высота нижней границы облаков в метрах; квадратными скобками обозначены формы облаков: Ci - перистые, Cs - перисто-слоистые, Cc - перисто-кучевые, Ac - высококучевые, As - высокослоистые, Sc - слоисто-кучевые, Ns - слоисто-дождевые, Cu - кучевые, Cb - кучево-дождевые. Подробнее классификацию облаков см. в Атласе облаков (PDF).
T - Температура воздуха - температура, измеренная на высоте 2 м над землей.
Td - Температура точки росы - температура, при понижении до которой содержащийся в воздухе водяной пар достигнет насыщения.
f - Относительная влажность воздуха - влажноcть воздуха, измеренная на высоте 2 м над землей.
Te - Эффективная температура - температура, которую ощущает одетый по сезону человек в тени. Характеристика душности погоды. При расчете учитывается влияние влажности воздуха и скорости ветра на теплоощущения человека.
Tes - Эффективная температура на солнце - температура, которую ощущает человек, с поправкой на солнечный нагрев. Характеристика знойности погоды. Зависит от высоты солнца над горизонтом, облачности и скорости ветра. Ночью, в пасмурную погоду, а также при ветре 12 м/с и более поправка равна нулю.
P - Атмосферное давление - приведенное к уровню моря атмосферное давление.
Po - Атмосферное давление - измеренное на уровне метеостанции атмосферное давление.
Tmin - Минимальная температура - минимум температуры воздуха на высоте 2 м над землей.
Tmax - Максимальная температура - максимум температуры воздуха на высоте 2 м над землей.
R - Количество осадков - Количество выпавших осадков за период времени, мм. При наведении курсора мыши на число - период времени, за который выпало указанное количество осадков.
R24 - Количество осадков - Количество выпавших осадков за 24 часа, мм.
S - Снежный покров - Высота снежного покрова, см. При наведении курсора мыши на число - состояние снежного покрова и степень покрытия местности в баллах.